Retour au catalogue

OPS 0856 DEB

LostPO
NORAD 27724·DEBRIS·🇺🇸 United States

Lancé Aug 19, 1966 depuis Vandenberg Space Force Base

Loading…

Prochains Passages (prochaines 24 heures)

TLE

PériméSource: Space-Track

Époque: May 3, 2025, 06:03 UTC

1 27724U 66077AC  25123.25242778 -.00004304  00000-0 -12796+1 0  9996
2 27724  89.6590 216.2132 0800256  30.8413 356.9154  8.77699079115022

Suivez OPS 0856 DEB en temps réel avec AllMySat

Download on the App Store